Location: Pella
(41.4080°N, 92.9160°W)
Time: 15:37:05
(UTC-06:00)

ISS - Visible Passes

Search period start: 25 February 2018 00:00
Search period end: 07 March 2018 00:00
Orbit: 403 x 406 km, 51.6° (Epoch: 26 February)

Date Brightness Start Highest point End Pass type
(mag) Time Alt. Az. Time Alt. Az. Time Alt. Az.
26 Feb -1.2 05:32:21 10° S 05:34:42 18° SE 05:37:04 10° E visible
27 Feb -3.8 06:15:24 10° SW 06:18:40 87° SE 06:21:57 10° NE visible
28 Feb -2.8 05:24:34 20° SSW 05:26:28 44° SE 05:29:37 10° ENE visible
01 Mar -1.5 04:34:51 22° ESE 04:34:51 22° ESE 04:37:00 10° E visible
01 Mar -3.2 06:07:32 10° WSW 06:10:40 42° NNW 06:13:48 10° NE visible
02 Mar -3.9 05:17:39 52° WSW 05:18:20 75° NW 05:21:37 10° NE visible
03 Mar -1.6 04:27:39 26° ENE 04:27:39 26° ENE 04:29:18 10° ENE visible
03 Mar -2.3 06:00:19 12° WNW 06:02:45 24° NNW 06:05:30 10° NE visible
04 Mar -3.0 05:10:12 35° NNW 05:10:17 36° NNW 05:13:21 10° NE visible
05 Mar -1.2 04:20:00 20° NE 04:20:00 20° NE 04:21:08 10° NE visible
05 Mar -1.8 05:52:39 10° WNW 05:54:53 17° NNW 05:57:10 10° NNE visible
06 Mar -2.1 05:02:23 22° NNW 05:02:23 22° NNW 05:04:58 10° NE visible
